sat.trackr.live / text

‹ back to catalog

ONEWEB-0424

NORAD 50497 · 2021-132AE

PAYLOAD ACTIVE UNKNOWN

§ Identity

Operator
Country
UK
Launch date
2021-12-27
Launch site
TYMSC
Launch vehicle
Mass (kg)
RCS (m²)

Purposes: comms

External: N2YO · Heavens-Above · Gunter

§ Orbital elements

Epoch: 2026-09-19T21:31:01.305696Z

Period
109.20 min
Inclination
87.9162°
Eccentricity
0.0001638
Mean motion
13.18685933 rev/d
Perigee alt
1,188.5 km
Apogee alt
1,191.0 km
Semi-major
7,567.9 km
B*
-4.6983e-5
RAAN
316.6388°
Arg perigee
103.5187°
Mean anomaly
256.6128°
Rev number
23,412

§ Raw data

ONEWEB-04241 50497U 21132AE  26262.89654289 -.00000006  00000+0 -46983-4 0  99942 50497  87.9162 316.6388 0001638 103.5187 256.6128 13.18685933234127

JSON: /api/v1/satellites/50497 · /tle

For live sub-satellite position, see the globe view (requires WebGL).

§ Visibility from observer

Set your observer location to see the next 7 days of passes ≥ 10°. The values pass through the URL so the page stays shareable.

No JS? Fill the form by hand. The geolocation button needs JavaScript.